Weather History for Winner, SD

Change the Weather History Date:

Thursday, November 22, 2012

  Actual Average Record
Temperature  
Mean Temperature 41 °F 32 °F  
Max Temperature 60 °F 42 °F 62 °F (2014)
Min Temperature 22 °F 23 °F 0 °F (2010)
Degree Days  
Heating Degree Days 24 33  
Month to date heating degree days 525 594  
Since 1 July heating degree days 1070 1192  
Cooling Degree Days 0 0  
Month to date cooling degree days 0 0  
Year to date cooling degree days 1470 916  
Moisture  
Dew Point 28 °F    
Average Humidity 52    
Maximum Humidity 76    
Minimum Humidity 27    
Precipitation  
Precipitation T in 0.02 in 0.04 in (2008)
Month to date precipitation 0.01 0.50  
Year to date precipitation 10.16 21.13  
Sea Level Pressure  
Sea Level Pressure 30.05 in    
Wind  
Wind Speed 20 mph (WNW)    
Max Wind Speed 41 mph    
Max Gust Speed 52 mph    
Visibility 10 miles    
Events Rain    
T = Trace of Precipitation, MM = Missing Value Source: NWS Daily Summary

Daily Weather History Graph

Daily Weather History Graph

Search for Another Location

Airport:

Trip Planner

Search our weather history database for the weather conditions in past years. The results will help you decide how hot, cold, wet, or windy it might be!

Date:

Astronomy

Nov. 22, 2012 Rise Set
Actual Time 7:42 AM CST 5:08 PM CST
Civil Twilight 7:10 AM CST 5:40 PM CST
Nautical Twilight 6:35 AM CST 6:15 PM CST
Astronomical Twilight 6:01 AM CST 6:49 PM CST
Moon 2:03 PM CST (11/22) 1:55 AM CST (11/22)
Length of Visible Light 10h 29m
Length of Day
9h 26m
Waxing Gibbous, 71% of the Moon is Illuminated
Nov 22
Waxing Gibbous
Nov 28
Full
Dec 6
Last Quarter
Dec 13
New
Dec 19
First Quarter

Hourly Weather History & Observations

Time (CST) Temp. Windchill Dew Point Humidity Pressure Visibility Wind Dir Wind Speed Gust Speed Precip Events Conditions
12:53 AM 55.9 °F - 24.1 °F 29% 29.63 in 10.0 mi SW 12.7 mph - N/A   Clear
1:53 AM 60.1 °F - 27.0 °F 28% 29.65 in 10.0 mi WNW 21.9 mph - N/A   Clear
2:53 AM 54.0 °F - 32.0 °F 43% 29.70 in 10.0 mi NNW 12.7 mph - N/A   Clear
3:53 AM 52.0 °F - 34.0 °F 50% 29.74 in 10.0 mi WNW 13.8 mph - N/A   Clear
4:53 AM 50.0 °F - 34.0 °F 54% 29.79 in 10.0 mi WNW 12.7 mph - N/A   Clear
5:53 AM 46.9 °F - 35.1 °F 63% 29.82 in 10.0 mi WNW 13.8 mph - N/A   Clear
6:53 AM 45.0 °F 38.5 °F 35.1 °F 68% 29.87 in 10.0 mi West 13.8 mph - N/A   Clear
7:53 AM 45.0 °F 37.9 °F 35.1 °F 68% 29.90 in 10.0 mi West 16.1 mph - N/A   Mostly Cloudy
8:53 AM 46.9 °F - 36.0 °F 66% 29.95 in 10.0 mi WNW 23.0 mph 29.9 mph N/A   Overcast
9:53 AM 44.1 °F 34.6 °F 37.0 °F 76% 30.01 in 10.0 mi NW 26.5 mph 41.4 mph 0.00 in Rain Light Rain
10:53 AM 44.1 °F 37.4 °F 39.9 °F 85% 30.03 in 10.0 mi WNW 13.8 mph - 0.00 in   Overcast
11:53 AM 48.9 °F - 36.0 °F 61% 30.04 in 10.0 mi NW 21.9 mph 36.8 mph N/A   Partly Cloudy
12:53 PM 50.0 °F - 28.0 °F 43% 30.06 in 10.0 mi NW 27.6 mph 39.1 mph N/A   Clear
1:53 PM 51.1 °F - 26.1 °F 38% 30.07 in 10.0 mi NW 29.9 mph 41.4 mph N/A   Clear
2:53 PM 51.1 °F - 24.1 °F 35% 30.08 in 10.0 mi WNW 26.5 mph 34.5 mph N/A   Clear
3:53 PM 46.9 °F - 26.1 °F 44% 30.12 in 10.0 mi NW 19.6 mph 28.8 mph 0.00 in   Scattered Clouds
4:53 PM 39.9 °F 32.5 °F 32.0 °F 73% 30.19 in 10.0 mi NW 12.7 mph - 0.00 in   Clear
5:53 PM 39.9 °F 32.5 °F 30.9 °F 70% 30.23 in 10.0 mi NW 12.7 mph - N/A   Overcast
6:53 PM 39.0 °F 30.3 °F 27.0 °F 62% 30.25 in 10.0 mi WNW 16.1 mph - N/A   Mostly Cloudy
7:53 PM 35.1 °F 20.8 °F 27.0 °F 72% 30.32 in 10.0 mi NNW 35.7 mph 46.0 mph N/A   Overcast
8:53 PM 28.0 °F 11.8 °F 16.0 °F 61% 30.38 in 10.0 mi WNW 32.2 mph 39.1 mph N/A   Clear
9:53 PM 25.0 °F 8.9 °F 10.9 °F 55% 30.43 in 10.0 mi NW 26.5 mph 40.3 mph N/A   Clear
10:53 PM 24.1 °F 8.0 °F 12.0 °F 60% 30.46 in 10.0 mi NW 25.3 mph 38.0 mph N/A   Overcast
11:53 PM 21.9 °F 6.2 °F 10.9 °F 63% 30.47 in 10.0 mi WNW 21.9 mph 35.7 mph N/A   Clear